Simultaneous Nadir Overpasses (SNOs) Predictions

Prediction of SNOs between METOP-A and TERRA Satellite Orbit:

Table of predicted SNOs for the next 14.0 days since TLE Epoch: 5/11/2019
Index Date (METOP-A) Time (METOP-A) Lat,Lon (METOP-A) SZA (METOP-A ) Date (TERRA) Time (TERRA) Lat,Lon (TERRA) SZA (TERRA ) Distance(km) Time Diff (sec)
1 05/13/2019 03:46:44 81.45, 173.33 66.43 05/13/2019 03:47:54 81.46, 173.40 66.48 1.32 70
2 05/13/2019 04:37:24 -81.45, -18.96 113.54 05/13/2019 04:37:21 -81.45, -19.10 113.56 2.35 3
3 05/15/2019 23:20:56 81.45,-120.17 65.76 05/15/2019 23:22:08 81.46,-120.17 65.80 0.88 72
4 05/16/2019 00:11:36 -81.45, 47.55 114.20 05/16/2019 00:11:35 -81.46, 47.36 114.23 3.29 1
5 05/16/2019 01:02:01 81.34,-139.03 66.50 05/16/2019 01:00:49 81.65,-140.03 66.48 37.44 72
6 05/18/2019 18:55:13 81.46, -55.28 64.95 05/18/2019 18:56:26 81.40, -54.94 64.99 8.63 73
7 05/18/2019 19:45:50 -81.45, 113.66 114.88 05/18/2019 19:45:50 -81.45, 113.79 114.86 2.16 0
8 05/18/2019 20:36:30 81.45, -78.87 65.14 05/18/2019 20:35:17 81.44, -78.85 65.10 1.00 73
9 05/21/2019 15:20:03 -81.45,-179.85 115.46 05/21/2019 15:20:05 -81.45,-179.82 115.46 0.61 2
10 05/21/2019 16:10:43 81.45, -12.39 64.55 05/21/2019 16:09:32 81.44, -12.48 64.50 1.92 71
11 05/24/2019 10:54:15 -81.45,-113.37 116.01 05/24/2019 10:54:19 -81.45,-113.45 116.02 1.35 4




NCC Satellite Simultaneous Nadir Overpasses (SNOs) Prediction Service
